DW0417 Weather Reports


time (UTC)temp
F
wind
direction
speed
knots
gust
knots
rain 1hr
in
rain 24hr
in
rain mn
in
humidity
%
barometer
mb
20260505161647 36 195 0.0 0.9 0.05 0.53 0.37 91 1013.9
20260505160646 35 210 0.0 1.7 0.05 0.52 0.36 91 1014.2
20260505160132 35 214 0.0 2.6 0.05 0.51 0.35 91 1014.3
20260505153136 35 184 0.9 2.6 0.06 0.49 0.33 91 1014.3
20260505151647 35 174 1.7 2.6 0.05 0.48 0.32 91 1014.4
20260505150647 35 198 0.0 1.7 0.05 0.47 0.31 91 1014.4
20260505140642 33 160 0.0 0.0 0.01 0.42 0.26 91 1014.4
20260505124630 34 155 0.0 0.9 0.00 0.40 0.24 91 1013.7
20260505124109 33 161 0.0 0.9 0.00 0.40 0.24 91 1013.6
20260505122632 34 167 0.0 0.9 0.01 0.40 0.24 91 1013.6
20260505122610 34 160 0.0 1.7 0.01 0.40 0.24 91 1013.5
20260505120631 34 171 0.9 2.6 0.02 0.40 0.24 90 1013.4
20260505120105 35 209 1.7 5.2 0.03 0.40 0.24 90 1013.4
20260505114626 35 138 2.6 6.1 0.05 0.40 0.24 90 1013.4
20260505113625 35 181 3.5 7.8 0.07 0.40 0.24 90 1013.2
20260505112626 36 167 3.5 7.8 0.08 0.39 0.23 90 1013.1
20260505111624 36 203 4.3 9.6 0.10 0.39 0.23 90 1013.0
20260505110626 36 219 3.5 8.7 0.10 0.38 0.22 90 1012.9
20260505101618 40 163 4.3 9.6 0.12 0.29 0.13 90 1012.3
20260505101108 41 159 5.2 10.4 0.11 0.28 0.12 90 1012.2
20260505095618 41 203 3.5 11.3 0.09 0.26 0.11 90 1012.0
20260505094616 42 178 1.7 5.2 0.07 0.24 0.08 89 1012.1
20260505093616 42 182 1.7 7.0 0.04 0.21 0.05 89 1011.7
20260505092617 42 209 1.7 6.1 0.01 0.18 0.02 89 1011.6
20260505091616 42 207 2.6 8.7 0.00 0.17 0.01 89 1011.7
20260505090617 42 194 3.5 12.2 0.00 0.17 0.01 89 1011.5
20260505085611 42 207 5.2 10.4 0.00 0.17 0.01 89 1011.1
20260505084611 42 191 4.3 9.6 0.00 0.17 0.01 89 1011.1
20260505083611 43 255 2.6 9.6 0.01 0.17 0.01 89 1011.3
20260505082612 43 187 4.3 8.7 0.01 0.17 0.01 89 1011.1
20260505081609 43 207 4.3 9.6 0.01 0.17 0.01 89 1011.1
20260505080612 43 183 5.2 10.4 0.01 0.17 0.01 88 1011.3
20260505080542 43 162 6.1 13.0 0.01 0.17 0.01 88 1011.1
20260505074610 44 155 5.2 12.2 0.01 0.17 0.01 87 1011.0
20260505073612 44 231 4.3 12.2 0.00 0.16 0.00 86 1011.1
20260505072606 45 202 6.1 11.3 0.00 0.16 0.00 86 1011.1
20260505071606 47 191 5.2 12.2 0.00 0.16 0.00 87 1011.1
20260505070605 47 206 1.7 6.1 0.00 0.16 0.00 90 1010.9
20260505065604 47 37 0.9 2.6 0.00 0.16 0.00 90 1010.6
20260505064605 46 30 0.0 0.0 0.00 0.16 0.00 90 1010.4
20260505063605 46 30 0.0 0.0 0.00 0.16 0.00 89 1010.3
20260505062605 46 30 0.0 0.0 0.00 0.16 0.00 89 1010.3
20260505061605 46 30 0.0 0.0 0.00 0.16 0.00 89 1010.4
20260505060605 46 30 0.0 0.0 0.00 0.16 0.00 89 1010.4
20260505055558 46 30 0.0 0.9 0.00 0.16 0.16 89 1010.4
20260505054559 46 30 0.0 0.0 0.00 0.16 0.16 88 1010.6
20260505053558 47 30 0.9 0.9 0.00 0.16 0.16 87 1010.3
20260505052559 46 30 0.0 0.9 0.00 0.16 0.16 88 1010.2
20260505051557 47 30 0.0 0.9 0.00 0.16 0.16 86 1010.1
20260505051036 47 30 0.9 1.7 0.00 0.16 0.16 84 1010.1
20260505041600 48 77 7.0 9.6 0.00 0.16 0.16 81 1010.4
20260505041039 49 64 7.0 9.6 0.02 0.16 0.16 82 1010.4
20260505035557 49 77 7.0 9.6 0.05 0.16 0.16 82 1010.4
20260505034557 49 67 6.1 8.7 0.08 0.16 0.16 84 1010.3
20260505033557 49 72 6.1 10.4 0.13 0.16 0.16 85 1010.4
20260505032557 49 74 5.2 8.7 0.15 0.16 0.16 86 1010.7
20260505031558 49 76 6.1 9.6 0.16 0.16 0.16 86 1010.6
20260505030559 49 69 4.3 9.6 0.14 0.14 0.15 85 1010.4
20260505025558 49 92 3.5 7.0 0.11 0.11 0.11 85 1010.3
20260505024557 50 103 4.3 8.7 0.08 0.08 0.08 84 1010.2
20260505024044 51 74 3.5 7.8 0.03 0.03 0.03 80 1010.0
20260505022557 52 120 0.9 5.2 0.01 0.01 0.01 76 1009.9
20260505021558 52 179 0.0 1.7 0.00 0.00 0.00 74 1009.5
20260505020557 52 178 0.9 3.5 0.00 0.00 0.00 74 1009.4
20260505020031 52 186 1.7 7.0 0.00 0.00 0.00 74 1009.5
20260505014556 52 165 4.3 8.7 0.00 0.00 0.00 73 1009.4
20260505013557 53 194 5.2 9.6 0.00 0.00 0.00 70 1009.2
20260505013035 53 157 5.2 11.3 0.00 0.00 0.00 68 1009.2
20260505011555 54 167 6.1 12.2 0.00 0.00 0.00 66 1009.3
20260505010556 56 214 7.0 13.0 0.00 0.00 0.00 63 1009.0
20260505005551 58 175 3.5 13.9 0.00 0.00 0.00 58 1008.9
20260505004551 58 196 1.7 5.2 0.00 0.00 0.00 61 1008.8
20260505003549 58 186 0.9 3.5 0.00 0.00 0.00 60 1008.6
20260505002550 58 167 2.6 5.2 0.00 0.00 0.00 61 1008.6
20260505001549 58 127 1.7 5.2 0.00 0.00 0.00 63 1008.7
20260505001041 58 148 1.7 4.3 0.00 0.00 0.00 63 1008.6
20260504235549 57 141 2.6 4.3 0.00 0.00 0.00 64 1008.3
20260504234549 58 198 1.7 6.1 0.00 0.00 0.00 62 1008.6
20260504233549 58 213 0.9 4.3 0.00 0.00 0.00 61 1008.5
20260504232544 58 202 0.9 4.3 0.00 0.00 0.00 62 1008.3
20260504231543 57 186 1.7 2.6 0.00 0.00 0.00 65 1008.2
20260504230544 57 55 3.5 5.2 0.00 0.00 0.00 63 1008.3
20260504225541 58 113 7.0 13.0 0.00 0.00 0.00 57 1008.3
20260504224541 61 110 3.5 6.1 0.00 0.00 0.00 46 1008.3
20260504223541 61 94 4.3 8.7 0.00 0.00 0.00 48 1008.6
20260504222541 61 103 5.2 8.7 0.00 0.00 0.00 48 1008.6
20260504221542 61 111 2.6 6.1 0.00 0.00 0.00 45 1008.1
20260504221025 62 193 1.7 4.3 0.00 0.00 0.00 44 1007.4
20260504220026 62 157 2.6 7.8 0.00 0.00 0.00 45 1007.0
20260504214536 62 210 4.3 10.4 0.00 0.00 0.00 46 1006.9
20260504213537 62 217 5.2 16.5 0.00 0.00 0.00 47 1007.0
20260504212536 62 226 7.8 19.1 0.00 0.00 0.00 45 1007.3
20260504212018 63 199 9.6 18.2 0.00 0.00 0.00 43 1007.3
20260504210536 63 174 9.6 20.0 0.00 0.00 0.00 43 1007.2
20260504205536 62 167 4.3 16.5 0.00 0.00 0.00 46 1007.5
20260504204535 65 222 6.1 16.5 0.00 0.00 0.00 37 1007.9
20260504203535 68 231 5.2 11.3 0.00 0.00 0.00 32 1007.7
20260504202533 68 293 9.6 18.2 0.00 0.00 0.00 34 1006.7
20260504201533 67 359 13.0 22.6 0.00 0.00 0.00 33 1006.8
20260504201022 69 347 11.3 19.1 0.00 0.00 0.00 30 1006.9
20260504195533 70 81 13.0 20.9 0.00 0.00 0.00 28 1006.7
20260504194533 71 88 7.0 14.8 0.00 0.00 0.00 24 1006.5
20260504194015 72 91 3.5 7.8 0.00 0.00 0.00 24 1006.5
20260504192533 72 156 2.6 7.0 0.00 0.00 0.00 22 1006.3
20260504192017 71 195 3.5 8.7 0.00 0.00 0.00 21 1006.2
20260504190533 71 156 4.3 9.6 0.00 0.00 0.00 23 1006.2
20260504185533 71 96 4.3 8.7 0.00 0.00 0.00 24 1006.3
20260504184532 71 90 7.0 13.9 0.00 0.00 0.00 25 1006.5
20260504183534 72 176 6.1 12.2 0.00 0.00 0.00 26 1006.7
20260504182533 71 126 6.1 12.2 0.00 0.00 0.00 27 1006.9
20260504181532 70 103 8.7 15.6 0.00 0.00 0.00 27 1006.9
20260504180533 70 97 9.6 17.4 0.00 0.00 0.00 28 1007.2
20260504180011 69 103 10.4 17.4 0.00 0.00 0.00 30 1007.4
20260504174531 69 76 9.6 17.4 0.00 0.00 0.00 29 1007.6
20260504173532 68 86 9.6 18.2 0.00 0.00 0.00 31 1007.7
20260504172529 67 91 7.8 17.4 0.00 0.00 0.00 32 1008.0
20260504171529 66 98 7.8 15.6 0.00 0.00 0.00 32 1008.1
20260504171004 66 139 7.8 17.4 0.00 0.00 0.00 32 1008.2